Regional Weather Roundup
Issued by NWS

Home | Current Version | Previous Version | Text Only | Print | Product List | Glossary Off
Versions: 1 2 3 4 5 6 7 8 9 10 11 12 13 14 15 16 17 18 19 20 21 22 23 24 25 26 27 28 29 30 31 32 33 34 35 36 37 38 39 40 41 42 43 44 45 46 47 48 49 50

000
ASUS43 KDTX 061110
RWRMI
MICHIGAN HOURLY REGIONAL WEATHER ROUNDUP
NATIONAL WEATHER SERVICE DETROIT/PONTIAC MI
600 AM EST FRI MAR 06 2015

NOTE: "FAIR" INDICATES FEW OR NO CLOUDS BELOW 12,000 FEET WITH NO
SIGNIFICANT WEATHER AND/OR OBSTRUCTION TO VISIBILITY.

MIZ047>049-052>055-059>063-066>070-074>076-081>083-061200-
SOUTHEAST LOWER MICHIGAN

CITY           SKY/WX    TMP DP  RH WIND       PRES   REMARKS
ADRIAN         CLEAR     -4  -8  83 W3        30.49S
ALMA           PTCLDY     4   1  88 S7        30.42F WCI  -8
ANN ARBOR      MOCLDY    -9 -12  87 CALM      30.47R
BAD AXE        PTCLDY    -2  -5  87 SW5       30.42S WCI -12
CARO           MOCLDY    -7 -12  80 CALM      30.43S
DETROIT CITY   PTCLDY     8   0  69 SW5       30.49S WCI   0
DETROIT        MOCLDY     2  -4  76 S5        30.50S WCI  -8
FLINT          MOCLDY     4  -2  76 S9        30.45S WCI -10
GROSSE ILE     MOCLDY     1  -2  85 CALM      30.49S
HILLSDALE      PTCLDY     2  -2  83 SW3       30.43S
HOWELL         MOCLDY     2  -1  88 SW6       30.43S WCI  -9

CITY           SKY/WX    TMP DP  RH WIND       PRES   REMARKS
JACKSON        MOCLDY     0  -5  79 SW5       30.45R WCI -10
LAMBERTVILLE   FAIR       1  -4  78 CALM      30.51R
LANSING        PTCLDY     4  -1  80 S7        30.44S WCI  -8
LAPEER         FAIR     -13 -18  79 CALM      30.44S
MASON          PTCLDY    -1  -5  83 CALM      30.44S
MT. CLEMENS    MOCLDY    -5 -10  79 SE1       30.47R
PONTIAC        PTCLDY    -3  -8  79 CALM      30.43S
PORT HOPE        N/A      3  -4  72 SW5       30.40S WCI  -6
PORT HURON     MOCLDY   -13 -18  77 S3        30.48S
TRI CITIES     CLOUDY     5   0  79 SW8       30.43S WCI  -8
TROY           PTCLDY     6   0  76 S3        30.49S
SAGINAW HB     PTCLDY     1  -2  85 S7        30.44S WCI -11
$$
MIZ043>046-050>051-056>058-064>065-071>073-077>080-061200-
SOUTHWEST LOWER MICHIGAN

CITY           SKY/WX    TMP DP  RH WIND       PRES   REMARKS
BATTLE CREEK   PTCLDY     2  -3  80 SW6       30.44R WCI  -9
BENTON HARBOR  PTCLDY     3  -1  83 S8        30.48R WCI -10
BIG RAPIDS     CLOUDY    -2  -4  89 CALM      30.35F
COLDWATER      CLOUDY     1  -3  81 SW3       30.45S
FREMONT        FLURRIES   6   2  83 S6        30.39S WCI  -4
HOLLAND        CLOUDY     7   2  80 S8        30.44S WCI  -6
GRAND RAPIDS   PTCLDY     5   0  79 SW9       30.43S WCI  -9
IONIA          FAIR       3  -1  81 SW7       30.42S WCI  -9
KALAMAZOO      PTCLDY    -1  -5  82 S6        30.46R WCI -13
LUDINGTON      CLEAR     16   7  69 SW9       30.37S WCI   4
MARSHALL       MOCLDY     2  -2  83 SW3       30.45R
MOUNT PLEASANT FLURRIES   3  -1  83 S5        30.39F WCI  -6
MUSKEGON       CLOUDY    16   8  71 SW12      30.42S WCI   3
SOUTH HAVEN    PTCLDY     8   2  78 SW7       30.46S WCI  -4
$$
MIZ016>042-061200-
NORTHERN LOWER MICHIGAN

CITY           SKY/WX    TMP DP  RH WIND       PRES   REMARKS
ALPENA         MOCLDY    -1  -6  79 S6        30.33F WCI -13
BEAVER ISLAND  CLEAR     10   2  71 SW14G20   30.25F WCI  -6
BELLAIRE       PTCLDY     4   1  84 SW3       30.32F
CADILLAC       PTCLDY     5   1  85 SW12      30.28S WCI -11
CHARLEVOIX     CLEAR      5   0  79 CALM      30.32F
FRANKFORT      PTCLDY    16   9  74 W10       30.33S WCI   3
GAYLORD        CLEAR      1  -2  87 SW8       30.24F WCI -13
GRAYLING       PTCLDY     3  -2  81 SW5       30.29F WCI  -7
HARBOR SPRINGS CLEAR     -2  -6  83 CALM      30.27F
HOUGHTON LAKE  MOCLDY     0  -4  83 S6        30.32S WCI -12
MANISTEE       PTCLDY    -2  -9  71 E3        30.34F
OSCODA         MOCLDY     0  -4  82 SW6       30.37F WCI -11
PELLSTON       CLEAR      7  -1  70 S5        30.28F WCI  -2
ROGERS CITY    PTCLDY     1  -2  86 SW7       30.31F WCI -11
TRAVERSE CITY  PTCLDY     9   2  73 S5        30.31F WCI   1
$$
MIZ007>008-015-061200-
EASTERN UPPER MICHIGAN

CITY           SKY/WX    TMP DP  RH WIND       PRES   REMARKS
KINROSS        PTCLDY     1   0  92 SW6       30.22F WCI -10
MACKINAC ISLAN PTCLDY     4  -2  77 S7        30.25F WCI  -9
NEWBERRY       PTCLDY     0  -6  76 SW14      30.19F WCI -19
S. S. MARIE    MOCLDY    -9 -15  75 E3        30.23S
MUNISING         N/A      3 -10  54 SW15      30.17F WCI -16
$$
MIZ004>006-011>014-085-061200-
CENTRAL UPPER MICHIGAN

CITY           SKY/WX    TMP DP  RH WIND       PRES   REMARKS
MANISTIQUE     PTCLDY     5  -4  65 SW8       30.23F WCI  -8
ESCANABA       PTCLDY     0  -8  71 SW7       30.24F WCI -13
MENOMINEE      PTCLDY     1  -8  66 SW8       30.26F WCI -12
SAWYER-GWINN   PTCLDY     1  -8  66 SW10      30.12S WCI -15
$$
MIZ001>003-009>011-084-061200-
WESTERN UPPER MICHIGAN

CITY           SKY/WX    TMP DP  RH WIND       PRES   REMARKS
IRON MOUNTAIN  PTCLDY    -2 -10  69 S8        30.15F WCI -17
HOUGHTON       PTCLDY     2  -6  69 SW6       30.02F WCI  -9
COPPER HARBOR    N/A      4  -8  57 SW12G21   30.04F WCI -12
IRONWOOD       CLEAR      9   1  72 SW13G20   30.00F WCI  -7
$$

ABBREVIATIONS USED IN REMARKS
   TC - TEMPERATURE IN CELSIUS
  WCI - WIND CHILL INDEX
   HX - HEAT INDEX
  VSB - VISIBILITY




USA.gov is the U.S. government's official web portal to all federal, state and local government web resources and services.